Starlink 3624

operational
NORAD ID: 51773 Int'l Des: 2022-017 Owner: SPXS Country: US Constellation: starlink
LEOCIRCULAR

Starlink 3624について

説明を読み込み中...

リアルタイム位置

3D地球を読み込み中...

次回通過

高度履歴

Altitude vs Time

uPlot chart will show altitude changes over time

軌道要素

1 51773U 22017F 26036.61312142 .00001360 00000-0 10350-3 0 9994
2 51773 53.2173 123.0903 0001292 92.6756 267.4384 15.08844685217769
Epoch: Feb 5, 2026 • Age: 17 hours

現在のステータス

高度 539.6 km
速度 7.59 km/s
衛星直下点 11.30°N, 44.82°E
打ち上げ日 Feb 25, 2022
運用期間 3.9 years
タイプ internet

技術仕様

分類 Payload
質量 297.00 kg
乾燥質量 275.00 kg
総質量 297.00 kg
長さ 0.20 m
直径 2.80 m
スパン 9.00 m
形状 Box + pan
製造者 SPXS
バスタイプ Starlink
フェーズステータス In Orbit
所有者/国 SPXS/US

大規模コンステレーション

Loading constellations...